Regional Weather Roundup
Issued by NWS

Home | Current Version | Previous Version | Graphics & Text | Print | Product List | Glossary On
Versions: 1 2 3 4 5 6 7 8 9 10 11 12 13 14 15 16 17 18 19 20 21 22 23 24 25 26 27 28 29 30 31 32 33 34 35 36 37 38 39 40 41 42 43 44 45 46 47 48 49 50
000
ASUS43 KDMX 212107
RWRIA

WEATHER ROUNDUP FOR IOWA
NATIONAL WEATHER SERVICE DES MOINES IA
400 PM CDT TUE OCT 21 2014

NOTE: "FAIR" INDICATES FEW OR NO CLOUDS BELOW 12,000 FEET WITH NO
SIGNIFICANT WEATHER AND/OR OBSTRUCTIONS TO VISIBILITY.

* - THESE STATIONS ARE NOT NWS STATIONS...THUS NOT UNDER NWS
QUALITY CONTROL.  THEY ALSO DO NOT REPORT WEATHER SUCH
AS PRECIPITATION OR FOG.

IAZ001>003-012>014-020>022-031>034-043>046-212200-
   NORTHWEST IOWA

CITY           SKY/WX    TMP DP  RH WIND       PRES   REMARKS
CARROLL *      SUNNY     70  41  35 SE9       30.07S
CHEROKEE *     SUNNY     73  41  31 S9        30.04S
DENISON *      SUNNY     72  39  30 S7G14     30.03F
LE MARS *      SUNNY     73  43  33 S14G20    30.02S
ORANGE CITY *  SUNNY     75  37  25 S12       30.02S
SHELDON *      SUNNY     73  43  33 SE15      30.02S
SIOUX CITY     SUNNY     76  43  30 S10       30.01F
SPENCER        SUNNY     70  42  36 SE12      30.06F
STORM LAKE *   SUNNY     70  41  35 SE13      30.07S
$$

IAZ055>058-069>071-079>083-090>094-212200-
   SOUTHWEST IOWA

CITY           SKY/WX    TMP DP  RH WIND       PRES   REMARKS
ATLANTIC *     SUNNY     72  41  33 SE9       30.06S
AUDUBON *      SUNNY     72  30  21 S7        30.08S
CLARINDA *     SUNNY     73  39  29 SE7       30.08S
COUNCIL BLFS * SUNNY     73  43  33 S9        30.04S
CRESTON *      SUNNY     70  43  37 SE7       30.09S
HARLAN  *      SUNNY     73  39  29 SE8       30.09S
LAMONI         SUNNY     69  45  41 E5        30.09F
RED OAK *      SUNNY     73  39  29 VRB6      30.06S
SHENANDOAH *   SUNNY     73  39  29 SE7       30.06F
$$

IAZ047>049-059>061-072>074-084-212200-
   CENTRAL IOWA

CITY           SKY/WX    TMP DP  RH WIND       PRES   REMARKS
AMES           SUNNY     64  43  46 SE10      30.11S
ANKENY *       SUNNY     64  45  48 SE8       30.11S
CHARITON *     SUNNY     66  45  45 E7        30.12R
DES MOINES     MOSUNNY   66  44  45 E12       30.11S
GRINNELL*      SUNNY     63  41  45 SE9       30.14S
KNOXVILLE *    SUNNY     63  43  48 VRB6G13   30.11S
MARSHALLTOWN   SUNNY     62  43  49 SE10      30.13S
PELLA *        SUNNY     66  43  42 SE8       30.14S
PERRY *          N/A     68  43  40 SE8       30.10R
$$

IAZ004>006-015-016-023>025-035-036-212200-
   NORTH CENTRAL IOWA

CITY           SKY/WX    TMP DP  RH WIND       PRES   REMARKS
ALGONA *       SUNNY     66  41  39 SE10      30.10R
CLARION *      SUNNY     64  39  39 S9G17     30.11S
ESTHERVILLE    SUNNY     66  41  40 SE14      30.08S
FORT DODGE *   SUNNY     64  45  48 SE6       30.11S
MASON CITY     SUNNY     62  41  46 SE10      30.14S
FOREST CITY *  SUNNY     61  43  51 SE10G16   30.12S
IOWA FALLS *     N/A     63  41  45 SE10      30.13F
$$

IAZ007>011-017>019-026>030-037>042-050>054-066-212200-
   NORTHEAST IOWA

CITY           SKY/WX    TMP DP  RH WIND       PRES   REMARKS
CEDAR RAPIDS   SUNNY     59  41  51 E10       30.15S
CHARLES CITY * SUNNY     59  39  47 SE7       30.16S
CLINTON *      SUNNY     55  37  50 NE10      30.20F
DECORAH *      SUNNY     55  37  50 E6G13     30.16S
DUBUQUE        SUNNY     55  38  52 E10       30.18S
MONTICELLO *   SUNNY     57  37  47 NE8       30.17S
OELWEIN *      SUNNY     59  39  47 VRB6G13   30.17S
WATERLOO       SUNNY     60  39  45 E12       30.14F
$$

IAZ064-065-067-068-078-212200-
   EAST CENTRAL IOWA

CITY           SKY/WX    TMP DP  RH WIND       PRES   REMARKS
DAVENPORT      SUNNY     57  37  47 E7        30.17F
IOWA CITY      SUNNY     60  41  49 NE6       30.17S
MT. PLEASANT * SUNNY     61  39  44 NE5       30.15S
MUSCATINE *    SUNNY     61  37  41 E9        30.16S
QUAD CITIES    SUNNY     59  39  47 E8        30.16F
$$

IAZ062-063-075>077-085>089-095>099-212200-
   SOUTHEAST IOWA

CITY           SKY/WX    TMP DP  RH WIND       PRES   REMARKS
BURLINGTON     SUNNY     61  42  49 NE10      30.15S
FAIRFIELD *    SUNNY     61  41  48 VRB7      30.15S
FORT MADISON * SUNNY     64  41  42 NE3       30.15S HAZE
KEOKUK *       SUNNY     63  43  48 NE8       30.14R
OSKALOOSA *      N/A     63  41  45 E9        30.14R
CENTERVILLE *  SUNNY     64  45  48 E6        30.14S
WASHINGTON *   SUNNY     61  39  44 NE7G13    30.15S
$$

ABBREVIATIONS USED IN REMARKS
   TC - TEMPERATURES IN CELSIUS
  WCI - WIND CHILL INDEX
   HX - HEAT INDEX
  VSB - VISIBILITY
$$




USA.gov is the U.S. government's official web portal to all federal, state and local government web resources and services.